Flag for Kazakhstan Weather past 2 weeks in Shymkent, Kazakhstan

39 °F


Feels Like: 35 °F
Forecast: 38 / 57 °F
Wind: 6 mph from Southeast

Location: Shymkent Airport

Current Time: Nov 27, 2015 at 7:20:31 AM

Latest Report: Nov 27, 2015 at 7:00 AM

Visibility: 10 mi

Pressure: 30.12 "Hg (28.30 "Hg at 506m altitude)

Humidity: 75%

Dew point: 32 °F

Location of ShymkentLocation

Historic Weather in Shymkent — Graph


Shymkent temperature yesterday

Maximum temperature yesterday: 52 °F (at 2:30 PM)
Minimum temperature yesterday: 28 °F (at 8:30 AM)
Average temperature yesterday: 40 °F

Past Weeks' High & Low Weather Summary

High61 °F (Nov 12, 2:00 PM)100% (Nov 12, 5:00 AM)30.48 "Hg (Nov 12, 5:00 AM)
Low28 °F (Nov 26, 8:30 AM)35% (Nov 16, 2:30 PM)29.62 "Hg (Nov 12, 5:00 AM)
Average43 °F81%30.19 "Hg
* Reported Nov 12 5:00 AM — Nov 27 5:30 AM, Shymkent, Weather by CustomWeather, © 2015

Note: Actual official high and low records may vary slightly from our data, if they occured in-between our weather recording intervals... More about our weather records


Shymkent weather history for previous 24 hours

Time TempWeatherWind HumidityBarometerVisibility
5:30 AM
Fri, Nov 27
37 °FFog.6 mph75%30.12 "Hg2 mi
4:30 AM39 °FFog.6 mph75%30.15 "Hg2 mi
4:00 AM39 °FFog.8 mph75%30.15 "Hg2 mi
3:30 AM37 °FFog.8 mph81%30.15 "Hg2 mi
2:30 AM36 °FFog.6 mph87%30.18 "Hg1 mi
2:00 AM36 °FFog.6 mph87%30.18 "Hg1 mi
1:30 AM37 °FFog.6 mph87%30.18 "Hg1 mi
1:00 AM37 °FFog.6 mph87%30.18 "Hg1 mi
12:30 AM37 °FFog.6 mph87%30.18 "Hg1 mi
12:00 AM37 °FFog.6 mph87%30.18 "Hg1 mi
11:30 PM
Thu, Nov 26
36 °FFog.No wind87%30.21 "Hg1 mi
11:00 PM37 °FFog.1 mph87%30.21 "Hg1 mi
10:30 PM37 °FFog.3 mph81%30.21 "Hg1 mi
10:00 PM39 °FFog.6 mph87%30.24 "Hg1 mi
9:30 PM39 °FFog.6 mph81%30.24 "Hg1 mi
9:00 PM37 °FFog.6 mph87%30.24 "Hg1 mi
8:30 PM39 °FFog.3 mph81%30.27 "Hg1 mi
8:00 PM41 °FFog.1 mph81%30.27 "Hg1 mi
7:30 PM41 °FFog.1 mph81%30.27 "Hg1 mi
7:00 PM39 °FFog.3 mph87%30.27 "Hg2 mi
6:30 PM43 °FFog.1 mph76%30.27 "Hg3 mi
6:00 PM46 °FPassing clouds.1 mph71%30.27 "Hg3 mi
5:30 PM48 °FPartly sunny.1 mph66%30.27 "Hg4 mi
5:00 PM50 °FPartly sunny.1 mph58%30.27 "Hg4 mi
4:30 PM50 °FPartly sunny.1 mph58%30.27 "Hg4 mi
4:00 PM50 °FPartly sunny.3 mph62%30.27 "Hg4 mi
3:30 PM50 °FPartly sunny.1 mph58%30.27 "Hg4 mi
3:00 PM52 °FPartly sunny.3 mph58%30.27 "Hg4 mi
2:30 PM52 °FPartly sunny.1 mph58%30.27 "Hg4 mi
2:00 PM50 °FPartly sunny.1 mph62%30.30 "Hg4 mi
1:30 PM50 °FScattered clouds.1 mph62%30.30 "Hg4 mi
1:00 PM50 °FScattered clouds.1 mph62%30.30 "Hg4 mi
12:30 PM48 °FScattered clouds.No wind66%30.30 "Hg4 mi
12:00 PM46 °FScattered clouds.No wind71%30.33 "Hg4 mi
11:30 AM45 °FFog.1 mph71%30.33 "Hg2 mi
11:00 AM43 °FFog.1 mph76%30.33 "Hg2 mi
10:30 AM41 °FFog.3 mph81%30.33 "Hg2 mi
9:30 AM34 °FFog.6 mph100%30.33 "Hg1 mi
9:00 AM30 °FIce fog.6 mph100%30.33 "Hg1 mi
8:30 AM28 °FIce fog.1 mph100%30.33 "Hg1 mi
8:00 AM30 °FIce fog.No wind100%30.33 "Hg1 mi
7:30 AM32 °FIce fog.1 mph100%30.33 "Hg1 mi
7:00 AM32 °FIce fog.3 mph100%30.33 "Hg1 mi
Weather by CustomWeather, © 2015

See weather overviewHow to use our weather pages